This is the latest recevied weather packets stored in our database for station/object N0SWP-3. If no packets are shown the sender has not sent any weather packets the latest 10 day(s).
| Time | Temp. | Humidity | Pressure | Rain* | Wind** | Luminosity | Snow |
|---|---|---|---|---|---|---|---|
| 1777648863 | 14.44° C | 44% | 1019.7 hPa | 0 mm | - | - | - |
| 1777647963 | 13.89° C | 52% | 1019.7 hPa | 0 mm | - | - | - |
| 1777646344 | 12.22° C | 58% | 1019.7 hPa | 0 mm | - | - | - |
| 1777645623 | 12.22° C | 63% | 1019.7 hPa | 0 mm | - | - | - |
| 1777645443 | 12.22° C | 65% | 1019.6 hPa | 0 mm | - | - | - |
| 1777645083 | 11.67° C | 68% | 1019.7 hPa | 0 mm | - | - | - |
| 1777643823 | 10° C | 74% | 1019.9 hPa | 0 mm | - | - | - |
| 1777643463 | 9.44° C | 77% | 1020 hPa | 0 mm | - | - | - |
| 1777642743 | 8.89° C | 82% | 1020.1 hPa | 0 mm | - | - | - |
| 1777642563 | 8.33° C | 85% | 1020.1 hPa | 0 mm | - | - | - |
| 1777642203 | 7.78° C | 85% | 1020.2 hPa | 0 mm | - | - | - |
| 1777642023 | 7.22° C | 86% | 1020.2 hPa | 0 mm | - | - | - |
| 1777641663 | 6.67° C | 88% | 1020.2 hPa | 0 mm | - | - | - |
| 1777640763 | 6.11° C | 93% | 1020.3 hPa | 0 mm | - | - | - |
| 1777640583 | 5.56° C | 93% | 1020.3 hPa | 0 mm | - | - | - |
| 1777640223 | 5.56° C | 94% | 1020.3 hPa | 0 mm | - | - | - |
| 1777636263 | 3.89° C | 95% | 1019.6 hPa | 0 mm | - | - | - |
| 1777633743 | 3.89° C | 94% | 1019.6 hPa | 0 mm | - | - | - |
| 1777631403 | 3.89° C | 94% | 1019.6 hPa | 0 mm | - | - | - |
| 1777631223 | 3.89° C | 94% | 1019.6 hPa | 0 mm | - | - | - |
| 1777629963 | 3.89° C | 93% | 1019.3 hPa | 0 mm | - | - | - |
| 1777629784 | 3.89° C | 93% | 1019.2 hPa | 0 mm | - | - | - |
| 1777628524 | 4.44° C | 93% | 1019.4 hPa | 0 mm | - | - | - |
| 1777628343 | 4.44° C | 93% | 1019.4 hPa | 0 mm | - | - | - |
| 1777627083 | 4.44° C | 91% | 1019.4 hPa | 0 mm | - | - | - |
* Rain latest hour (hover to see other rain measurements)
** Current wind speed in m/s (hover to see current wind gust speed)